Wetterdaten: Samstag, 11.01.2014
Datum Zeit Temp. Auen Feucht Auen Luftdruck Regen Richtung Richtung Windben
11.01.2014 00:00 -0,4 C 93 % 1021,3 hPa 0,0 mm W 277 0,0 km/h (0 Bft)
11.01.2014 00:05 -0,5 C 93 % 1021,3 hPa 0,0 mm W 277 0,0 km/h (0 Bft)
11.01.2014 00:10 -0,6 C 93 % 1021,3 hPa 0,0 mm W 277 0,0 km/h (0 Bft)
11.01.2014 00:15 -0,6 C 93 % 1021,3 hPa 0,0 mm W 277 0,0 km/h (0 Bft)
11.01.2014 00:20 -0,6 C 93 % 1021,3 hPa 0,0 mm W 277 1,6 km/h (1 Bft)
11.01.2014 00:25 -0,5 C 93 % 1021,4 hPa 0,0 mm W 277 1,6 km/h (1 Bft)
11.01.2014 00:30 -0,6 C 93 % 1021,3 hPa 0,0 mm W 277 0,0 km/h (0 Bft)
11.01.2014 00:35 -0,6 C 93 % 1021,3 hPa 0,0 mm W 277 1,6 km/h (1 Bft)
11.01.2014 00:40 -0,5 C 93 % 1021,4 hPa 0,0 mm W 277 3,2 km/h (1 Bft)
11.01.2014 00:45 -0,4 C 93 % 1021,3 hPa 0,0 mm W 277 1,6 km/h (1 Bft)
11.01.2014 00:50 -0,4 C 93 % 1021,4 hPa 0,0 mm W 277 0,0 km/h (0 Bft)
11.01.2014 00:55 -0,4 C 93 % 1021,3 hPa 0,0 mm W 277 0,0 km/h (0 Bft)
11.01.2014 01:00 -0,5 C 93 % 1021,3 hPa 0,0 mm W 277 3,2 km/h (1 Bft)
11.01.2014 01:05 -0,5 C 93 % 1021,3 hPa 0,0 mm W 277 1,6 km/h (1 Bft)
11.01.2014 01:10 -0,5 C 93 % 1021,2 hPa 0,0 mm W 277 3,2 km/h (1 Bft)
11.01.2014 01:15 -0,5 C 93 % 1021,2 hPa 0,0 mm W 277 3,2 km/h (1 Bft)
11.01.2014 01:20 -0,4 C 93 % 1021,2 hPa 0,0 mm W 277 0,0 km/h (0 Bft)
11.01.2014 01:25 -0,4 C 93 % 1021,2 hPa 0,0 mm W 277 1,6 km/h (1 Bft)
11.01.2014 01:30 -0,4 C 93 % 1021,2 hPa 0,0 mm W 277 0,0 km/h (0 Bft)
11.01.2014 01:35 -0,4 C 93 % 1021,1 hPa 0,0 mm W 277 0,0 km/h (0 Bft)
11.01.2014 01:40 -0,4 C 93 % 1021,2 hPa 0,0 mm W 277 0,0 km/h (0 Bft)
11.01.2014 01:45 -0,4 C 93 % 1021,1 hPa 0,0 mm W 277 0,0 km/h (0 Bft)
11.01.2014 01:50 -0,3 C 93 % 1021,1 hPa 0,0 mm W 277 1,6 km/h (1 Bft)
11.01.2014 01:55 -0,2 C 93 % 1021,0 hPa 0,0 mm W 277 3,2 km/h (1 Bft)
11.01.2014 02:00 -0,2 C 93 % 1021,0 hPa 0,0 mm W 277 0,0 km/h (0 Bft)
11.01.2014 02:05 -0,2 C 93 % 1020,9 hPa 0,0 mm W 277 0,0 km/h (0 Bft)
11.01.2014 02:10 -0,1 C 93 % 1021,0 hPa 0,0 mm W 277 0,0 km/h (0 Bft)
11.01.2014 02:15 -0,1 C 93 % 1021,1 hPa 0,0 mm W 277 0,0 km/h (0 Bft)
11.01.2014 02:20 -0,1 C 93 % 1021,1 hPa 0,0 mm W 277 3,2 km/h (1 Bft)
11.01.2014 02:25 -0,1 C 93 % 1021,0 hPa 0,0 mm W 277 1,6 km/h (1 Bft)
11.01.2014 02:30 -0,1 C 93 % 1020,9 hPa 0,0 mm W 277 0,0 km/h (0 Bft)
11.01.2014 02:35 0,0 C 93 % 1020,8 hPa 0,0 mm W 277 1,6 km/h (1 Bft)
11.01.2014 02:40 0,0 C 93 % 1020,8 hPa 0,0 mm W 277 1,6 km/h (1 Bft)
11.01.2014 02:45 0,0 C 93 % 1020,9 hPa 0,0 mm W 277 0,0 km/h (0 Bft)
11.01.2014 02:50 0,1 C 93 % 1020,7 hPa 0,0 mm W 277 0,0 km/h (0 Bft)
11.01.2014 02:55 0,0 C 93 % 1020,7 hPa 0,0 mm W 277 1,6 km/h (1 Bft)
11.01.2014 03:00 0,0 C 93 % 1020,7 hPa 0,0 mm W 277 0,0 km/h (0 Bft)
11.01.2014 03:05 0,0 C 93 % 1020,7 hPa 0,0 mm W 277 0,0 km/h (0 Bft)
11.01.2014 03:10 -0,1 C 93 % 1020,7 hPa 0,0 mm W 277 0,0 km/h (0 Bft)
11.01.2014 03:15 -0,2 C 93 % 1020,6 hPa 0,0 mm W 277 0,0 km/h (0 Bft)
11.01.2014 03:20 -0,2 C 93 % 1020,6 hPa 0,0 mm W 277 0,0 km/h (0 Bft)
11.01.2014 03:25 -0,2 C 93 % 1020,7 hPa 0,0 mm W 277 0,0 km/h (0 Bft)
11.01.2014 03:30 -0,2 C 93 % 1020,7 hPa 0,0 mm W 277 0,0 km/h (0 Bft)
11.01.2014 03:35 -0,1 C 93 % 1020,7 hPa 0,0 mm W 277 0,0 km/h (0 Bft)
11.01.2014 03:40 -0,1 C 93 % 1020,8 hPa 0,0 mm W 277 0,0 km/h (0 Bft)
11.01.2014 03:45 -0,1 C 93 % 1020,8 hPa 0,0 mm W 277 0,0 km/h (0 Bft)
11.01.2014 03:50 -0,1 C 93 % 1020,8 hPa 0,0 mm W 277 0,0 km/h (0 Bft)
11.01.2014 03:55 -0,1 C 93 % 1020,8 hPa 0,0 mm W 277 0,0 km/h (0 Bft)
11.01.2014 04:00 -0,1 C 93 % 1020,8 hPa 0,0 mm W 277 1,6 km/h (1 Bft)
11.01.2014 04:05 -0,1 C 93 % 1020,7 hPa 0,0 mm W 277 1,6 km/h (1 Bft)
11.01.2014 04:10 -0,1 C 93 % 1020,7 hPa 0,0 mm W 277 1,6 km/h (1 Bft)
11.01.2014 04:15 -0,1 C 93 % 1020,7 hPa 0,0 mm W 277 0,0 km/h (0 Bft)
11.01.2014 04:20 -0,1 C 93 % 1020,7 hPa 0,0 mm W 277 0,0 km/h (0 Bft)
11.01.2014 04:25 -0,2 C 93 % 1020,7 hPa 0,0 mm W 277 0,0 km/h (0 Bft)
11.01.2014 04:30 -0,2 C 93 % 1020,7 hPa 0,0 mm W 277 1,6 km/h (1 Bft)
11.01.2014 04:35 -0,3 C 94 % 1020,7 hPa 0,0 mm W 277 0,0 km/h (0 Bft)
11.01.2014 04:40 -0,4 C 94 % 1020,7 hPa 0,0 mm W 277 0,0 km/h (0 Bft)
11.01.2014 04:45 -0,4 C 93 % 1020,7 hPa 0,0 mm W 277 1,6 km/h (1 Bft)
11.01.2014 04:50 -0,6 C 93 % 1020,7 hPa 0,0 mm W 277 3,2 km/h (1 Bft)
11.01.2014 04:55 -0,7 C 94 % 1020,7 hPa 0,0 mm W 277 1,6 km/h (1 Bft)
11.01.2014 05:00 -0,7 C 94 % 1020,7 hPa 0,0 mm W 277 1,6 km/h (1 Bft)
11.01.2014 05:05 -0,8 C 94 % 1020,7 hPa 0,0 mm W 277 1,6 km/h (1 Bft)
11.01.2014 05:10 -0,8 C 93 % 1020,6 hPa 0,0 mm W 277 3,2 km/h (1 Bft)
11.01.2014 05:15 -0,7 C 94 % 1020,5 hPa 0,0 mm W 277 3,2 km/h (1 Bft)
11.01.2014 05:20 -0,7 C 94 % 1020,5 hPa 0,0 mm W 277 3,2 km/h (1 Bft)
11.01.2014 05:25 -0,7 C 94 % 1020,5 hPa 0,0 mm W 277 1,6 km/h (1 Bft)
11.01.2014 05:30 -0,7 C 94 % 1020,5 hPa 0,0 mm W 277 0,0 km/h (0 Bft)
11.01.2014 05:35 -0,8 C 94 % 1020,4 hPa 0,0 mm W 277 3,2 km/h (1 Bft)
11.01.2014 05:40 -0,8 C 93 % 1020,3 hPa 0,0 mm W 277 1,6 km/h (1 Bft)
11.01.2014 05:45 -0,8 C 93 % 1020,3 hPa 0,0 mm W 277 1,6 km/h (1 Bft)
11.01.2014 05:50 -0,9 C 94 % 1020,3 hPa 0,0 mm W 277 3,2 km/h (1 Bft)
11.01.2014 05:55 -0,9 C 94 % 1020,3 hPa 0,0 mm W 277 1,6 km/h (1 Bft)
11.01.2014 06:00 -1,0 C 94 % 1020,1 hPa 0,0 mm W 277 0,0 km/h (0 Bft)
11.01.2014 06:05 -1,1 C 93 % 1020,1 hPa 0,0 mm W 277 1,6 km/h (1 Bft)
11.01.2014 06:10 -1,1 C 93 % 1020,1 hPa 0,0 mm W 277 1,6 km/h (1 Bft)
11.01.2014 06:15 -1,2 C 93 % 1020,1 hPa 0,0 mm W 277 0,0 km/h (0 Bft)
11.01.2014 06:20 -1,2 C 94 % 1020,2 hPa 0,0 mm W 277 0,0 km/h (0 Bft)
11.01.2014 06:25 -1,3 C 94 % 1020,2 hPa 0,0 mm W 277 0,0 km/h (0 Bft)
11.01.2014 06:30 -1,3 C 94 % 1020,2 hPa 0,0 mm W 277 1,6 km/h (1 Bft)
11.01.2014 06:35 -1,4 C 93 % 1020,2 hPa 0,0 mm W 277 0,0 km/h (0 Bft)
11.01.2014 06:40 -1,4 C 93 % 1020,2 hPa 0,0 mm W 277 0,0 km/h (0 Bft)
11.01.2014 06:45 -1,5 C 93 % 1020,3 hPa 0,0 mm W 277 0,0 km/h (0 Bft)
11.01.2014 06:50 -1,6 C 94 % 1020,3 hPa 0,0 mm W 277 0,0 km/h (0 Bft)
11.01.2014 06:55 -1,6 C 94 % 1020,3 hPa 0,0 mm W 277 0,0 km/h (0 Bft)
11.01.2014 07:00 -1,6 C 94 % 1020,4 hPa 0,0 mm W 277 0,0 km/h (0 Bft)
11.01.2014 07:05 -1,5 C 93 % 1020,3 hPa 0,0 mm W 277 1,6 km/h (1 Bft)
11.01.2014 07:10 -1,4 C 93 % 1020,3 hPa 0,0 mm W 277 0,0 km/h (0 Bft)
11.01.2014 07:15 -1,4 C 93 % 1020,3 hPa 0,0 mm W 277 0,0 km/h (0 Bft)
11.01.2014 07:20 -1,4 C 93 % 1020,3 hPa 0,0 mm W 277 0,0 km/h (0 Bft)
11.01.2014 07:25 -1,3 C 94 % 1020,3 hPa 0,0 mm W 277 0,0 km/h (0 Bft)
11.01.2014 07:30 -1,3 C 94 % 1020,3 hPa 0,0 mm W 277 0,0 km/h (0 Bft)
11.01.2014 07:35 -1,3 C 94 % 1020,3 hPa 0,0 mm W 277 1,6 km/h (1 Bft)
11.01.2014 07:40 -1,1 C 93 % 1020,3 hPa 0,0 mm W 277 3,2 km/h (1 Bft)
11.01.2014 07:45 -1,1 C 93 % 1020,3 hPa 0,0 mm W 277 1,6 km/h (1 Bft)
11.01.2014 07:50 -1,0 C 93 % 1020,3 hPa 0,0 mm W 277 1,6 km/h (1 Bft)
11.01.2014 07:55 -0,9 C 94 % 1020,4 hPa 0,0 mm W 277 1,6 km/h (1 Bft)
11.01.2014 08:00 -0,9 C 94 % 1020,3 hPa 0,0 mm W 277 0,0 km/h (0 Bft)
11.01.2014 08:05 -0,8 C 94 % 1020,4 hPa 0,0 mm W 277 0,0 km/h (0 Bft)
11.01.2014 08:10 -0,7 C 93 % 1020,4 hPa 0,0 mm W 277 0,0 km/h (0 Bft)
11.01.2014 08:15 -0,6 C 94 % 1020,4 hPa 0,0 mm W 277 0,0 km/h (0 Bft)
11.01.2014 08:20 -0,6 C 94 % 1020,4 hPa 0,0 mm W 277 0,0 km/h (0 Bft)
11.01.2014 08:25 -0,5 C 94 % 1020,5 hPa 0,0 mm W 277 0,0 km/h (0 Bft)
11.01.2014 08:30 -0,4 C 94 % 1020,5 hPa 0,0 mm W 277 0,0 km/h (0 Bft)
11.01.2014 08:35 -0,4 C 94 % 1020,5 hPa 0,0 mm W 277 0,0 km/h (0 Bft)
11.01.2014 08:40 -0,3 C 94 % 1020,6 hPa 0,0 mm W 277 0,0 km/h (0 Bft)
11.01.2014 08:45 -0,3 C 94 % 1020,6 hPa 0,0 mm W 277 0,0 km/h (0 Bft)
11.01.2014 08:50 -0,2 C 94 % 1020,4 hPa 0,0 mm W 277 0,0 km/h (0 Bft)
11.01.2014 08:55 -0,2 C 94 % 1020,4 hPa 0,0 mm W 277 0,0 km/h (0 Bft)
11.01.2014 09:00 -0,1 C 94 % 1020,5 hPa 0,0 mm W 277 0,0 km/h (0 Bft)
11.01.2014 09:05 -0,1 C 94 % 1020,4 hPa 0,0 mm W 277 0,0 km/h (0 Bft)
11.01.2014 09:10 0,0 C 94 % 1020,3 hPa 0,0 mm W 277 0,0 km/h (0 Bft)
11.01.2014 09:15 0,1 C 94 % 1020,4 hPa 0,0 mm W 277 0,0 km/h (0 Bft)
11.01.2014 09:20 0,2 C 94 % 1020,3 hPa 0,0 mm W 277 0,0 km/h (0 Bft)
11.01.2014 09:25 0,3 C 94 % 1020,3 hPa 0,0 mm W 277 0,0 km/h (0 Bft)
11.01.2014 09:30 0,4 C 94 % 1020,3 hPa 0,0 mm W 277 1,6 km/h (1 Bft)
11.01.2014 09:35 0,4 C 94 % 1020,3 hPa 0,0 mm SW 227 3,2 km/h (1 Bft)
11.01.2014 09:40 0,5 C 94 % 1020,4 hPa 0,0 mm SW 218 3,2 km/h (1 Bft)
11.01.2014 09:45 0,5 C 94 % 1020,3 hPa 0,0 mm S 174 3,2 km/h (1 Bft)
11.01.2014 09:50 0,4 C 94 % 1020,3 hPa 0,0 mm S 174 1,6 km/h (1 Bft)
11.01.2014 09:55 0,5 C 94 % 1020,3 hPa 0,0 mm S 174 1,6 km/h (1 Bft)
11.01.2014 10:00 0,6 C 94 % 1020,2 hPa 0,0 mm S 174 1,6 km/h (1 Bft)
11.01.2014 10:05 0,8 C 94 % 1020,1 hPa 0,0 mm S 174 4,8 km/h (1 Bft)
11.01.2014 10:10 0,8 C 94 % 1019,9 hPa 0,0 mm S 169 4,8 km/h (1 Bft)
11.01.2014 10:15 0,9 C 94 % 1019,9 hPa 0,0 mm S-SO 153 4,8 km/h (1 Bft)
11.01.2014 10:20 0,9 C 94 % 1020,1 hPa 0,0 mm S-SO 156 3,2 km/h (1 Bft)
11.01.2014 10:25 1,1 C 94 % 1020,1 hPa 0,0 mm S 170 4,8 km/h (1 Bft)
11.01.2014 10:30 1,3 C 94 % 1020,0 hPa 0,0 mm S 170 4,8 km/h (1 Bft)
11.01.2014 10:35 1,4 C 94 % 1020,0 hPa 0,0 mm S 170 3,2 km/h (1 Bft)
11.01.2014 10:40 1,4 C 94 % 1020,0 hPa 0,0 mm SO 132 3,2 km/h (1 Bft)
11.01.2014 10:45 1,6 C 94 % 1019,9 hPa 0,0 mm SO 136 3,2 km/h (1 Bft)
11.01.2014 10:50 1,6 C 94 % 1019,9 hPa 0,0 mm SO 136 3,2 km/h (1 Bft)
11.01.2014 10:55 1,7 C 94 % 1019,8 hPa 0,0 mm O-SO 123 4,8 km/h (1 Bft)
11.01.2014 11:00 1,9 C 94 % 1019,7 hPa 0,0 mm S-SO 161 4,8 km/h (1 Bft)
11.01.2014 11:05 1,9 C 94 % 1019,7 hPa 0,0 mm S-SO 161 4,8 km/h (1 Bft)
11.01.2014 11:10 2,0 C 94 % 1019,7 hPa 0,0 mm SO 144 3,2 km/h (1 Bft)
11.01.2014 11:15 2,2 C 94 % 1019,7 hPa 0,0 mm SO 144 3,2 km/h (1 Bft)
11.01.2014 11:20 2,5 C 94 % 1019,6 hPa 0,0 mm O-SO 109 4,8 km/h (1 Bft)
11.01.2014 11:25 2,5 C 94 % 1019,6 hPa 0,0 mm O 89 4,8 km/h (1 Bft)
11.01.2014 11:30 2,8 C 94 % 1019,6 hPa 0,0 mm O 94 3,2 km/h (1 Bft)
11.01.2014 11:35 3,3 C 94 % 1019,5 hPa 0,0 mm O 94 1,6 km/h (1 Bft)
11.01.2014 11:40 3,2 C 94 % 1019,4 hPa 0,0 mm O 93 1,6 km/h (1 Bft)
11.01.2014 11:45 3,4 C 94 % 1019,4 hPa 0,0 mm O 94 0,0 km/h (0 Bft)
11.01.2014 11:50 3,7 C 94 % 1019,4 hPa 0,0 mm O 94 1,6 km/h (1 Bft)
11.01.2014 11:55 3,7 C 94 % 1019,3 hPa 0,0 mm O 94 1,6 km/h (1 Bft)
11.01.2014 12:00 4,3 C 94 % 1019,2 hPa 0,0 mm O 93 0,0 km/h (0 Bft)
11.01.2014 12:05 4,5 C 94 % 1019,1 hPa 0,0 mm O 92 1,6 km/h (1 Bft)
11.01.2014 12:10 5,0 C 94 % 1019,1 hPa 0,0 mm O 92 1,6 km/h (1 Bft)
11.01.2014 12:15 5,3 C 94 % 1018,9 hPa 0,0 mm O 92 0,0 km/h (0 Bft)
11.01.2014 12:20 5,1 C 92 % 1018,9 hPa 0,0 mm O 92 0,0 km/h (0 Bft)
11.01.2014 12:25 5,0 C 92 % 1018,9 hPa 0,0 mm O-SO 118 0,0 km/h (0 Bft)
11.01.2014 12:30 5,4 C 92 % 1018,9 hPa 0,0 mm O-SO 117 0,0 km/h (0 Bft)
11.01.2014 12:35 5,7 C 92 % 1018,8 hPa 0,0 mm O 90 0,0 km/h (0 Bft)
11.01.2014 12:40 5,8 C 91 % 1018,8 hPa 0,0 mm O 90 0,0 km/h (0 Bft)
11.01.2014 12:45 5,8 C 90 % 1018,7 hPa 0,0 mm O 90 0,0 km/h (0 Bft)
11.01.2014 12:50 5,7 C 91 % 1018,6 hPa 0,0 mm O 90 0,0 km/h (0 Bft)
11.01.2014 12:55 5,7 C 91 % 1018,6 hPa 0,0 mm O 90 0,0 km/h (0 Bft)
11.01.2014 13:00 5,7 C 91 % 1018,5 hPa 0,0 mm O 90 0,0 km/h (0 Bft)
11.01.2014 13:05 5,8 C 91 % 1018,5 hPa 0,0 mm O 90 0,0 km/h (0 Bft)
11.01.2014 13:10 5,9 C 91 % 1018,4 hPa 0,0 mm O 90 0,0 km/h (0 Bft)
11.01.2014 13:15 5,9 C 90 % 1018,3 hPa 0,0 mm O 90 0,0 km/h (0 Bft)
11.01.2014 13:20 6,0 C 90 % 1018,4 hPa 0,0 mm O 90 0,0 km/h (0 Bft)
11.01.2014 13:25 6,0 C 90 % 1018,4 hPa 0,0 mm O 90 0,0 km/h (0 Bft)
11.01.2014 13:30 6,1 C 90 % 1018,4 hPa 0,0 mm O 90 0,0 km/h (0 Bft)
11.01.2014 13:35 6,1 C 90 % 1018,4 hPa 0,0 mm O 95 0,0 km/h (0 Bft)
11.01.2014 13:40 6,1 C 90 % 1018,5 hPa 0,0 mm O 95 0,0 km/h (0 Bft)
11.01.2014 13:45 6,1 C 89 % 1018,5 hPa 0,0 mm O 95 0,0 km/h (0 Bft)
11.01.2014 13:50 6,1 C 89 % 1018,6 hPa 0,0 mm O 95 0,0 km/h (0 Bft)
11.01.2014 13:55 6,2 C 89 % 1018,7 hPa 0,0 mm O 95 0,0 km/h (0 Bft)
11.01.2014 14:00 6,2 C 89 % 1018,7 hPa 0,0 mm O 95 0,0 km/h (0 Bft)
11.01.2014 14:05 6,2 C 89 % 1018,7 hPa 0,0 mm O 95 0,0 km/h (0 Bft)
11.01.2014 14:10 6,3 C 89 % 1018,7 hPa 0,0 mm O 95 0,0 km/h (0 Bft)
11.01.2014 14:15 6,3 C 89 % 1018,7 hPa 0,0 mm O 95 0,0 km/h (0 Bft)
11.01.2014 14:20 6,3 C 89 % 1018,7 hPa 0,0 mm O 95 0,0 km/h (0 Bft)
11.01.2014 14:25 6,2 C 90 % 1018,7 hPa 0,0 mm O 95 0,0 km/h (0 Bft)
11.01.2014 14:30 6,2 C 90 % 1018,8 hPa 0,0 mm O 95 0,0 km/h (0 Bft)
11.01.2014 14:35 6,3 C 90 % 1018,7 hPa 0,0 mm O 95 0,0 km/h (0 Bft)
11.01.2014 14:40 6,3 C 89 % 1018,8 hPa 0,0 mm O 95 0,0 km/h (0 Bft)
11.01.2014 14:45 6,3 C 89 % 1018,8 hPa 0,0 mm O 95 0,0 km/h (0 Bft)
11.01.2014 14:50 6,3 C 90 % 1018,9 hPa 0,0 mm O 95 0,0 km/h (0 Bft)
11.01.2014 14:55 6,3 C 90 % 1018,9 hPa 0,0 mm O 95 0,0 km/h (0 Bft)
11.01.2014 15:00 6,3 C 91 % 1018,9 hPa 0,0 mm SO 126 0,0 km/h (0 Bft)
11.01.2014 15:05 6,3 C 90 % 1019,0 hPa 0,0 mm SO 127 0,0 km/h (0 Bft)
11.01.2014 15:10 6,2 C 90 % 1019,2 hPa 0,0 mm SO 127 0,0 km/h (0 Bft)
11.01.2014 15:15 6,1 C 90 % 1019,2 hPa 0,0 mm O 97 0,0 km/h (0 Bft)
11.01.2014 15:20 6,0 C 91 % 1019,3 hPa 0,0 mm O 97 0,0 km/h (0 Bft)
11.01.2014 15:25 5,8 C 91 % 1019,5 hPa 0,0 mm O 97 0,0 km/h (0 Bft)
11.01.2014 15:30 5,8 C 91 % 1019,5 hPa 0,0 mm O 97 0,0 km/h (0 Bft)
11.01.2014 15:35 5,8 C 92 % 1019,6 hPa 0,0 mm O 97 0,0 km/h (0 Bft)
11.01.2014 15:40 5,8 C 92 % 1019,7 hPa 0,0 mm O 97 0,0 km/h (0 Bft)
11.01.2014 15:45 5,9 C 92 % 1019,7 hPa 0,0 mm O 97 0,0 km/h (0 Bft)
11.01.2014 15:50 6,0 C 91 % 1019,8 hPa 0,0 mm W 273 0,0 km/h (0 Bft)
11.01.2014 15:55 6,2 C 91 % 1019,9 hPa 0,0 mm W 273 0,0 km/h (0 Bft)
11.01.2014 16:00 6,2 C 91 % 1019,9 hPa 0,0 mm W 273 0,0 km/h (0 Bft)
11.01.2014 16:05 6,2 C 91 % 1020,1 hPa 0,0 mm W 273 0,0 km/h (0 Bft)
11.01.2014 16:10 6,2 C 91 % 1020,1 hPa 0,0 mm W 269 4,8 km/h (1 Bft)
11.01.2014 16:15 6,2 C 91 % 1020,1 hPa 0,0 mm W 269 4,8 km/h (1 Bft)
11.01.2014 16:20 6,2 C 91 % 1020,1 hPa 0,0 mm W 264 4,8 km/h (1 Bft)
11.01.2014 16:25 6,2 C 91 % 1020,1 hPa 0,0 mm W 269 4,8 km/h (1 Bft)
11.01.2014 16:30 6,2 C 91 % 1020,2 hPa 0,0 mm W 271 4,8 km/h (1 Bft)
11.01.2014 16:35 6,2 C 91 % 1020,1 hPa 0,0 mm W 279 3,2 km/h (1 Bft)
11.01.2014 16:40 6,3 C 91 % 1020,1 hPa 0,0 mm W 281 3,2 km/h (1 Bft)
11.01.2014 16:45 6,2 C 91 % 1020,0 hPa 0,0 mm W 281 1,6 km/h (1 Bft)
11.01.2014 16:50 6,2 C 90 % 1020,1 hPa 0,0 mm W 273 4,8 km/h (1 Bft)
11.01.2014 16:55 6,1 C 91 % 1020,1 hPa 0,0 mm W 273 3,2 km/h (1 Bft)
11.01.2014 17:00 5,8 C 90 % 1020,1 hPa 0,0 mm W 273 3,2 km/h (1 Bft)
11.01.2014 17:05 5,1 C 91 % 1020,1 hPa 0,0 mm N-NW 342 1,6 km/h (1 Bft)
11.01.2014 17:10 4,7 C 92 % 1020,2 hPa 0,0 mm N 9 1,6 km/h (1 Bft)
11.01.2014 17:15 4,4 C 92 % 1020,2 hPa 0,0 mm O-NO 71 3,2 km/h (1 Bft)
11.01.2014 17:20 4,3 C 92 % 1020,2 hPa 0,0 mm O 98 1,6 km/h (1 Bft)
11.01.2014 17:25 4,2 C 92 % 1020,2 hPa 0,0 mm O 98 0,0 km/h (0 Bft)
11.01.2014 17:30 4,2 C 92 % 1020,1 hPa 0,0 mm O 98 0,0 km/h (0 Bft)
11.01.2014 17:35 4,2 C 93 % 1020,3 hPa 0,0 mm O 98 0,0 km/h (0 Bft)
11.01.2014 17:40 4,2 C 93 % 1020,3 hPa 0,0 mm O 98 0,0 km/h (0 Bft)
11.01.2014 17:45 4,2 C 93 % 1020,3 hPa 0,0 mm O 98 0,0 km/h (0 Bft)
11.01.2014 17:50 4,3 C 93 % 1020,3 hPa 0,0 mm O 99 0,0 km/h (0 Bft)
11.01.2014 17:55 4,4 C 93 % 1020,1 hPa 0,0 mm O 98 0,0 km/h (0 Bft)
11.01.2014 18:00 4,4 C 93 % 1020,0 hPa 0,0 mm O 99 0,0 km/h (0 Bft)
11.01.2014 18:05 4,4 C 93 % 1020,0 hPa 0,0 mm O 98 0,0 km/h (0 Bft)
11.01.2014 18:10 4,3 C 93 % 1020,0 hPa 0,0 mm O 99 0,0 km/h (0 Bft)
11.01.2014 18:15 4,3 C 93 % 1020,0 hPa 0,0 mm O 99 0,0 km/h (0 Bft)
11.01.2014 18:20 4,4 C 93 % 1020,1 hPa 0,0 mm O 99 0,0 km/h (0 Bft)
11.01.2014 18:25 4,4 C 93 % 1020,3 hPa 0,0 mm S-SW 192 0,0 km/h (0 Bft)
11.01.2014 18:30 4,2 C 93 % 1020,3 hPa 0,0 mm S-SW 192 0,0 km/h (0 Bft)
11.01.2014 18:35 4,2 C 93 % 1020,3 hPa 0,0 mm S-SW 192 0,0 km/h (0 Bft)
11.01.2014 18:40 4,3 C 93 % 1020,4 hPa 0,0 mm S-SW 192 0,0 km/h (0 Bft)
11.01.2014 18:45 4,4 C 93 % 1020,6 hPa 0,0 mm S-SW 192 0,0 km/h (0 Bft)
11.01.2014 18:50 4,3 C 93 % 1020,6 hPa 0,0 mm S-SW 192 0,0 km/h (0 Bft)
11.01.2014 18:55 4,4 C 93 % 1020,6 hPa 0,0 mm S-SW 192 0,0 km/h (0 Bft)
11.01.2014 19:00 4,6 C 93 % 1020,8 hPa 0,0 mm SW 217 3,2 km/h (1 Bft)
11.01.2014 19:05 4,7 C 93 % 1020,8 hPa 0,0 mm SW 217 1,6 km/h (1 Bft)
11.01.2014 19:10 4,6 C 93 % 1020,9 hPa 0,2 mm SW 219 3,2 km/h (1 Bft)
11.01.2014 19:15 4,7 C 93 % 1021,0 hPa 0,0 mm SW 219 1,6 km/h (1 Bft)
11.01.2014 19:20 4,8 C 93 % 1021,1 hPa 0,0 mm SW 224 3,2 km/h (1 Bft)
11.01.2014 19:25 4,8 C 93 % 1021,1 hPa 0,2 mm SW 230 4,8 km/h (1 Bft)
11.01.2014 19:30 4,9 C 93 % 1021,2 hPa 0,0 mm SW 230 1,6 km/h (1 Bft)
11.01.2014 19:35 4,9 C 93 % 1021,2 hPa 0,0 mm SW 230 1,6 km/h (1 Bft)
11.01.2014 19:40 5,0 C 93 % 1021,3 hPa 0,0 mm SW 230 0,0 km/h (0 Bft)
11.01.2014 19:45 5,0 C 93 % 1021,3 hPa 0,2 mm SW 230 1,6 km/h (1 Bft)
11.01.2014 19:50 4,9 C 93 % 1021,2 hPa 0,0 mm SW 230 0,0 km/h (0 Bft)
11.01.2014 19:55 4,9 C 93 % 1021,3 hPa 0,0 mm SW 230 3,2 km/h (1 Bft)
11.01.2014 20:00 5,1 C 93 % 1021,4 hPa 0,0 mm SW 230 3,2 km/h (1 Bft)
11.01.2014 20:05 5,1 C 93 % 1021,2 hPa 0,0 mm SW 230 1,6 km/h (1 Bft)
11.01.2014 20:10 5,0 C 93 % 1021,1 hPa 0,0 mm SW 230 1,6 km/h (1 Bft)
11.01.2014 20:15 5,1 C 93 % 1021,2 hPa 0,0 mm SW 231 1,6 km/h (1 Bft)
11.01.2014 20:20 5,3 C 93 % 1021,3 hPa 0,0 mm W-SW 238 3,2 km/h (1 Bft)
11.01.2014 20:25 5,4 C 93 % 1021,3 hPa 0,0 mm W-SW 238 3,2 km/h (1 Bft)
11.01.2014 20:30 5,4 C 93 % 1021,2 hPa 0,0 mm W-SW 238 1,6 km/h (1 Bft)
11.01.2014 20:35 5,3 C 93 % 1021,2 hPa 0,0 mm W-SW 238 1,6 km/h (1 Bft)
11.01.2014 20:40 5,4 C 93 % 1021,0 hPa 0,0 mm W-SW 238 1,6 km/h (1 Bft)
11.01.2014 20:45 5,4 C 93 % 1021,1 hPa 0,0 mm W-SW 239 1,6 km/h (1 Bft)
11.01.2014 20:50 5,5 C 93 % 1021,4 hPa 0,0 mm W-SW 239 0,0 km/h (0 Bft)
11.01.2014 20:55 5,5 C 93 % 1021,4 hPa 0,0 mm W-SW 239 0,0 km/h (0 Bft)
11.01.2014 21:00 5,4 C 93 % 1021,3 hPa 0,0 mm W-SW 239 0,0 km/h (0 Bft)
11.01.2014 21:05 5,5 C 93 % 1021,3 hPa 0,0 mm W-SW 239 0,0 km/h (0 Bft)
11.01.2014 21:10 5,3 C 93 % 1021,3 hPa 0,0 mm W-SW 239 0,0 km/h (0 Bft)
11.01.2014 21:15 5,3 C 93 % 1021,4 hPa 0,0 mm W-SW 239 0,0 km/h (0 Bft)
11.01.2014 21:20 5,4 C 93 % 1021,5 hPa 0,0 mm W-SW 239 1,6 km/h (1 Bft)
11.01.2014 21:25 5,4 C 93 % 1021,7 hPa 0,0 mm W-SW 239 1,6 km/h (1 Bft)
11.01.2014 21:30 5,4 C 93 % 1021,7 hPa 0,0 mm W-SW 239 1,6 km/h (1 Bft)
11.01.2014 21:35 5,8 C 93 % 1021,8 hPa 0,0 mm W 275 4,8 km/h (1 Bft)
11.01.2014 21:40 6,2 C 93 % 1021,8 hPa 0,0 mm W 263 6,4 km/h (2 Bft)
11.01.2014 21:45 6,4 C 93 % 1021,9 hPa 0,0 mm W 269 6,4 km/h (2 Bft)
11.01.2014 21:50 6,5 C 93 % 1022,0 hPa 0,0 mm W 274 6,4 km/h (2 Bft)
11.01.2014 21:55 6,8 C 92 % 1022,0 hPa 0,0 mm W 275 8,0 km/h (2 Bft)
11.01.2014 22:00 6,9 C 92 % 1022,1 hPa 0,0 mm W 273 11,3 km/h (2 Bft)
11.01.2014 22:05 7,1 C 91 % 1022,2 hPa 0,0 mm W 267 11,3 km/h (2 Bft)
11.01.2014 22:10 7,1 C 91 % 1022,5 hPa 0,4 mm W 270 9,7 km/h (2 Bft)
11.01.2014 22:15 7,1 C 91 % 1022,4 hPa 0,0 mm W 260 9,7 km/h (2 Bft)
11.01.2014 22:20 7,0 C 91 % 1022,6 hPa 0,2 mm W-NW 292 12,9 km/h (3 Bft)
11.01.2014 22:25 6,9 C 92 % 1022,5 hPa 0,2 mm W 276 12,9 km/h (3 Bft)
11.01.2014 22:30 6,8 C 92 % 1022,7 hPa 0,0 mm W 261 8,0 km/h (2 Bft)
11.01.2014 22:35 6,8 C 92 % 1022,8 hPa 0,0 mm W 260 6,4 km/h (2 Bft)
11.01.2014 22:40 6,8 C 92 % 1022,9 hPa 0,0 mm W-SW 257 8,0 km/h (2 Bft)
11.01.2014 22:45 6,8 C 92 % 1023,0 hPa 0,0 mm W 261 8,0 km/h (2 Bft)
11.01.2014 22:50 6,8 C 92 % 1023,1 hPa 0,0 mm W 259 9,7 km/h (2 Bft)
11.01.2014 22:55 6,8 C 92 % 1023,2 hPa 0,0 mm W 267 12,9 km/h (3 Bft)
11.01.2014 23:00 6,8 C 92 % 1023,3 hPa 0,2 mm W 273 16,1 km/h (3 Bft)
11.01.2014 23:05 6,9 C 92 % 1023,3 hPa 0,0 mm W-NW 284 12,9 km/h (3 Bft)
11.01.2014 23:10 7,1 C 91 % 1023,3 hPa 0,0 mm W 267 16,1 km/h (3 Bft)
11.01.2014 23:15 7,2 C 91 % 1023,5 hPa 0,0 mm W 272 19,3 km/h (3 Bft)
11.01.2014 23:20 7,2 C 91 % 1023,5 hPa 0,0 mm W 276 20,9 km/h (4 Bft)
11.01.2014 23:25 7,2 C 91 % 1023,6 hPa 0,2 mm W 267 19,3 km/h (3 Bft)
11.01.2014 23:30 7,2 C 91 % 1023,6 hPa 0,0 mm W 262 20,9 km/h (4 Bft)
11.01.2014 23:35 7,2 C 91 % 1023,7 hPa 0,0 mm W-SW 245 20,9 km/h (4 Bft)
11.01.2014 23:40 7,1 C 91 % 1023,7 hPa 0,2 mm W 277 24,1 km/h (4 Bft)
11.01.2014 23:45 7,1 C 91 % 1023,8 hPa 0,0 mm W 261 16,1 km/h (3 Bft)
11.01.2014 23:50 7,1 C 91 % 1023,9 hPa 0,0 mm W 275 14,5 km/h (3 Bft)
11.01.2014 23:55 7,0 C 91 % 1023,9 hPa 0,0 mm W 275 19,3 km/h (3 Bft)
_ Min-Zeit 06:45 13:45 13:15 - - - 00:00
Minimum _ -1,6 C 89 % 1018,3 hPa - - - 0,0 km/h (0 Bft)
_ Max-Zeit 23:15 04:35 23:50 22:10 - - 23:40
Maximum _ 7,2 C 94 % 1023,9 hPa 0,4 mm - - 24,1 km/h
W-NW (4 Bft)
Durchschnitt _ 2,8 C 93 % 1020,5 hPa #2,0 mm W - 2,3 km/h (1 Bft)